sat.trackr.live / text

‹ back to catalog

STARLINK-33992

NORAD 64026 · 2025-102E

PAYLOAD ACTIVE UNKNOWN

§ Identity

Operator
Country
US
Launch date
2025-05-16
Launch site
AFWTR
Launch vehicle
Mass (kg)
RCS (m²)

Purposes: comms

External: N2YO · Heavens-Above · Gunter

§ Orbital elements

Epoch: 2026-05-25T02:32:51.752256Z

Period
96.11 min
Inclination
70.0008°
Eccentricity
0.0003125
Mean motion
14.98334113 rev/d
Perigee alt
569.9 km
Apogee alt
574.2 km
Semi-major
6,950.2 km
B*
2.8147e-4
RAAN
281.9801°
Arg perigee
268.0845°
Mean anomaly
91.9956°
Rev number
5,748

§ Raw data

STARLINK-339921 64026U 25102E   26145.10615454  .00003267  00000+0  28147-3 0  99942 64026  70.0008 281.9801 0003125 268.0845  91.9956 14.98334113 57488

JSON: /api/v1/satellites/64026 · /tle

For live sub-satellite position, see the globe view (requires WebGL).

§ Visibility from observer

Set your observer location to see the next 7 days of passes ≥ 10°. The values pass through the URL so the page stays shareable.

No JS? Fill the form by hand. The geolocation button needs JavaScript.